PDT,Max TemperatureF,Mean TemperatureF,Min TemperatureF,Max Dew PointF,MeanDew PointF,Min DewpointF,Max Humidity, Mean Humidity, Min Humidity, Max Sea Level PressureIn, Mean Sea Level PressureIn, Min Sea Level PressureIn, Max VisibilityMiles, Mean VisibilityMiles, Min VisibilityMiles, Max Wind SpeedMPH, Mean Wind SpeedMPH, Max Gust SpeedMPH,PrecipitationIn, CloudCover, Events, WindDirDegrees
2012-10-1,84,65,46,56,47,42,80,54,28,30.23,30.15,30.07,10,10,10,14,7,18,0.00,0,,11
2012-10-2,71,61,50,56,47,39,87,66,44,30.18,30.14,30.10,10,10,10,14,7,18,0.00,1,,360
2012-10-3,74,57,39,40,30,21,89,52,14,30.19,30.14,30.08,10,10,9,24,9,30,0.00,0,,358
2012-10-4,76,59,41,34,30,25,65,41,16,30.14,30.11,30.09,10,10,10,21,9,25,0.00,0,,338
2012-10-5,79,59,39,30,25,20,64,38,11,30.15,30.11,30.05,10,10,10,17,5,22,0.00,0,,340
2012-10-6,79,58,37,30,24,18,64,37,10,30.14,30.07,29.99,10,10,10,21,5,25,0.00,0,,338
2012-10-7,79,59,38,35,29,23,64,40,15,30.03,29.96,29.89,10,10,10,9,2,12,0.00,0,,352
2012-10-8,73,56,38,46,38,33,85,58,31,30.04,29.98,29.92,10,10,10,10,3,14,0.00,0,,191
2012-10-9,69,54,38,46,43,38,100,70,39,30.12,30.06,29.99,10,10,7,8,3,10,0.00,0,Fog,332
2012-10-10,72,56,39,48,45,39,100,71,41,30.04,29.97,29.89,10,10,9,9,1,10,0.00,0,Fog,349
2012-10-11,69,54,38,48,43,37,100,75,49,29.97,29.92,29.79,10,4,0,6,1,8,0.00,3,Fog,27
2012-10-12,55,49,43,54,50,43,100,92,83,30.09,29.98,29.89,10,6,2,15,8,18,0.96,8,Rain,167
2012-10-13,65,60,55,58,56,54,100,89,78,30.23,30.19,30.10,10,9,2,16,7,20,0.02,7,Rain,177
2012-10-14,66,61,55,59,57,55,100,89,78,30.16,30.08,29.96,10,10,6,21,11,31,0.67,7,Rain,171
2012-10-15,67,63,59,63,60,57,100,87,73,29.98,29.85,29.72,10,6,2,23,13,32,0.80,8,Rain,181
2012-10-16,64,54,43,61,49,39,93,67,40,30.30,30.07,29.74,10,9,2,16,6,25,0.22,5,Rain,266
2012-10-17,63,50,37,47,43,39,100,74,48,30.31,30.26,30.18,10,6,0,15,4,18,0.00,3,Fog,345
2012-10-18,69,54,38,53,45,39,100,71,42,30.19,30.02,29.90,10,9,2,14,2,,0.06,2,Rain,163
2012-10-19,59,56,52,56,52,48,100,89,77,29.95,29.90,29.82,10,9,3,22,12,26,0.20,7,Rain,179
2012-10-20,56,49,42,49,43,39,100,81,61,30.00,29.96,29.92,10,10,10,17,6,22,0.08,6,Rain,206
2012-10-21,53,47,41,45,43,41,100,83,66,29.94,29.86,29.72,10,10,7,16,6,21,0.15,6,Rain,168
2012-10-22,51,47,42,46,43,39,100,86,71,29.72,29.63,29.57,10,10,5,20,7,24,0.31,6,Rain,175
2012-10-23,52,48,43,44,41,39,100,86,71,29.88,29.83,29.73,10,10,6,20,10,26,0.15,8,Rain,171
2012-10-24,53,49,44,46,43,41,93,84,74,30.19,29.99,29.86,10,10,10,18,8,22,0.09,6,Rain,169
2012-10-25,54,45,35,46,43,36,100,86,71,30.42,30.33,30.22,10,9,7,10,3,20,0.01,3,Fog,329
2012-10-26,60,53,45,49,46,44,93,79,64,30.30,30.18,30.14,10,9,5,20,8,24,T,5,Rain,173
2012-10-27,61,56,50,59,53,47,100,92,83,30.14,30.02,29.93,10,8,4,21,12,28,0.48,7,Rain,169
2012-10-28,63,61,59,61,60,58,100,97,93,30.00,29.94,29.89,10,6,2,18,7,25,1.16,8,Rain,184
2012-10-29,67,63,59,59,58,56,97,85,73,30.06,29.99,29.88,10,9,4,22,8,24,0.12,7,Rain,184
2012-10-30,63,60,57,59,58,56,100,92,84,29.97,29.86,29.77,10,10,6,13,5,18,0.18,7,Rain,154
2012-10-31,58,55,52,56,54,50,100,92,83,29.76,29.70,29.66,10,9,2,21,8,31,0.28,7,Rain,158